Das Wetter in  D-61279 Heinzenberg / Taunus





Wetter Minimum- & Maximum-Werte im November 2014

Standort: Heinzenberg / Taunus - Höhe 297 m         8° 24' 1" Ost 50° 21' 51" Nord
(   3-stündige Aktualisierung    letzte Aktualisierung um 20:46 am 30.11.2014  )


Messgrösse

Minimum

Maximum

Durchschnitt

Temperatur West /
Luftfeuchte West
Anklicken für Monats-Diagramm

-2,8 °C

08:01
25.11.2014

72 %

14:54
08.11.2014

16,3 °C

14:19
01.11.2014

94 %

12:09
01.11.2014

Temp

6,5 °C

Feuchte

88 %

Temperatur Ost /
Luftfeuchte Ost
Anklicken für Monats-Diagramm

-2,4 °C

08:01
25.11.2014

--

--
--

16,2 °C

13:29
01.11.2014

--

--
--

6,6 °C

--

Luftdruck Anklicken für Monats-Diagramm

994,7 hPa

14:47
04.11.2014

1028,8 hPa

03:16
25.11.2014

1013,0 hPa

Taupunkt

-4,2 °C

08:01
25.11.2014

13,8 °C

14:19
01.11.2014

4,6 °C

Windchill
( gefühlte Temperatur )

-8,5 °C

20:56
30.11.2014

16,3 °C

14:19
01.11.2014

5,1 °C

Windgeschwindigkeit /
Windrichtung
Anklicken für Monats-Diagramm

---

37,4 km/h / W-SW

20:16
03.11.2014

5,3 km/h
O-SO

Helligkeit /
Sonnenschein
Anklicken für Monats-Diagramm
Anklicken für Monats-Diagramm

Sonnenschein:

40:46 Stunden

Max: 5:46 Std am
25.11.2014

56,5 klux

12:03
07.11.2014

8,9 klux

Solarstrahlung Anklicken für Monats-Diagramm

---

386 W/m²

12:03
07.11.2014

68 W/m²

Regenmenge
    November 2014
Anklicken für Monats-Diagramm

Insgesamt 48,9 l/m²

in 60:10 Stunden
an 17 Tagen

19,5 l/m²

02:10
16.11.2014

Gesamtmenge

48,9 l/m²

Regen-Tage
    November 2014
Anklicken für Monats-Diagramm

>   0 mm/Tag

>   2 mm/Tag

>   5 mm/Tag

> 10 mm/Tag

> 20 mm/Tag

17 Tage     
6 Tage     
3 Tage     
  1 Tag     
0 Tage     

Eisige Tage November 2014 / 2013

Tmin ≤ -10°C     

0 Tage

/

0 Tage

Eistage November 2014 / 2013

Tmax <     0°C     

0 Tage

/

  1 Tag

Frosttage November 2014 / 2013

Tmin ≤     0°C     

3 Tage

/

11 Tage

Kalte Tage November 2014 / 2013

Tmax <   10°C     

17 Tage

/

22 Tage

Warme Tage November 2014 / 2013

Tmax ≥   20°C     

0 Tage

/

0 Tage

Sommertage November 2014 / 2013

Tmax ≥   25°C     

0 Tage

/

0 Tage

Heisse Tage November 2014 / 2013

Tmax ≥   30°C     

0 Tage

/

0 Tage


Monatsdiagramm November 2014

Die Kurven zeigen den Durchschnittswert des jeweiligen Tages an


Wetter-Monatsübersicht November 2014
Datum
  Temperatur
   Luftdruck
   Wind
  Regen
   Luftfeuchte
   Helligkeit

Sonnen-
schein

Ø
Temp.

Min.
Temp.

Max.
Temp.

Ø
Luftdruck

Min.
Luftdruck

Max.
Luftdruck

Ø-Geschw.
Haupt-Richtg.

Max.
Wind

Menge /
Dauer

Ø
Feuchte

Min.
Feuchte

Max.
Feuchte

Ø
Helligkeit

Max.
Helligkeit

1.
November
9,7 °C6,1 °C
08:29
16,3 °C
14:19
1022,4 hPa1020,2 hPa
14:29
1024,6 hPa
09:04
1,1 km/h
W-NW
7,8 km/h
13:34  
0,3 l/m²
30 Minuten
90 %80 %
15:24
94 %
12:09
21,19 klux42,20 klux
12:19
5:40 Std 
2.
November
9,4 °C4,6 °C
06:15
14,6 °C
13:40
1016,5 hPa1010,2 hPa
23:11
1020,6 hPa
02:05
4,7 km/h
W-SW
28,1 km/h
23:56  
---
25 Minuten
90 %82 %
23:31
94 %
11:00
14,8 klux43,9 klux
12:05
1:50 Std 
3.
November
13,0 °C11,0 °C
23:27
13,8 °C
13:51
1004,8 hPa997,0 hPa
23:57
1010,2 hPa
00:31
20,6 km/h
W-SW
37,4 km/h
20:16  
4,0 l/m²
5:46 Stunden
84 %78 %
21:01
88 %
23:52
5,6 klux13,6 klux
14:21
--- 
4.
November
11,6 °C9,0 °C
23:58
13,2 °C
13:52
996,1 hPa994,7 hPa
14:47
997,9 hPa
01:52
10,0 km/h
W-SW
32,9 km/h
06:32  
2,7 l/m²
6:27 Stunden
84 %77 %
14:12
90 %
22:23
6,7 klux21,8 klux
13:42
--- 
5.
November
8,5 °C7,9 °C
04:13
9,7 °C
12:46
1002,4 hPa996,3 hPa
00:03
1007,8 hPa
21:31
4,1 km/h
W
15,1 km/h
04:03  
2,9 l/m²
4:30 Stunden
89 %83 %
15:16
92 %
03:43
7,9 klux19,4 klux
13:11
--- 
6.
November
6,3 °C2,8 °C
23:58
9,8 °C
12:37
1012,1 hPa1007,8 hPa
00:02
1014,5 hPa
21:12
4,9 km/h
W-SW
26,5 km/h
13:07  
---
84 %75 %
14:06
91 %
09:57
18,9 klux50,3 klux
12:07
4:40 Std 
7.
November
4,6 °C0,0 °C
04:28
8,1 °C
23:49
1009,9 hPa1006,9 hPa
13:48
1013,8 hPa
00:53
6,3 km/h
W-SW
20,6 km/h
23:39  
0,5 l/m²
1:00 Stunden
87 %81 %
14:33
91 %
07:33
10,7 klux56,5 klux
12:03
55 Min 
8.
November
8,1 °C3,1 °C
23:19
11,5 °C
14:54
1012,5 hPa1010,9 hPa
03:34
1014,8 hPa
11:14
8,4 km/h
W-SW
23,2 km/h
11:54  
0,2 l/m²
10 Minuten
82 %72 %
14:54
88 %
23:44
18,8 klux44,5 klux
12:39
4:35 Std 
9.
November
5,8 °C2,3 °C
07:44
9,5 °C
14:19
1010,5 hPa1009,7 hPa
14:19
1011,5 hPa
00:04
4,3 km/h
SO
22,2 km/h
09:49  
---
87 %81 %
14:34
92 %
08:19
13,1 klux45,0 klux
11:49
1:05 Std 
10.
November
7,0 °C3,9 °C
23:26
10,1 °C
13:50
1012,2 hPa1011,2 hPa
06:24
1013,5 hPa
23:26
3,2 km/h
W-SW
18,2 km/h
13:40  
0,5 l/m²
1:56 Stunden
89 %85 %
15:05
93 %
09:45
6,5 klux16,5 klux
13:45
--- 
11.
November
7,4 °C4,1 °C
00:01
8,3 °C
15:06
1008,8 hPa1004,7 hPa
20:51
1013,5 hPa
00:01
5,7 km/h
O-SO
23,9 km/h
11:16  
---
89 %86 %
13:06
92 %
01:11
6,1 klux20,2 klux
11:41
--- 
12.
November
8,3 °C6,8 °C
00:06
10,2 °C
14:56
1005,6 hPa1003,7 hPa
08:01
1009,8 hPa
23:42
0,7 km/h
W-SW
11,1 km/h
13:16  
1,7 l/m²
3:50 Stunden
90 %86 %
15:36
92 %
07:51
5,8 klux14,2 klux
11:21
--- 
13.
November
9,5 °C8,0 °C
08:32
11,4 °C
14:22
1012,7 hPa1009,8 hPa
00:02
1014,8 hPa
22:17
1,4 km/h
O-SO
17,5 km/h
19:52  
1,4 l/m²
2:10 Stunden
91 %87 %
19:42
93 %
04:37
5,4 klux14,3 klux
11:32
--- 
14.
November
9,3 °C6,8 °C
21:08
11,0 °C
14:48
1009,7 hPa1006,7 hPa
23:54
1013,8 hPa
00:03
11,5 km/h
O-SO
31,2 km/h
11:38  
---
84 %78 %
15:08
89 %
00:03
4,8 klux22,0 klux
14:28
10 Min 
15.
November
9,2 °C8,0 °C
02:59
11,7 °C
13:09
1003,5 hPa1001,5 hPa
23:35
1006,7 hPa
00:04
5,1 km/h
O-SO
20,8 km/h
03:19  
6,1 l/m²
3:46 Stunden
86 %79 %
13:14
90 %
22:50
8,2 klux50,7 klux
12:54
30 Min 
16.
November
8,0 °C7,6 °C
08:55
8,8 °C
00:05
1001,5 hPa999,5 hPa
04:20
1003,6 hPa
23:55
7,0 km/h
W
25,5 km/h
10:25  
19,5 l/m²
15:00 Stunden
92 %89 %
23:20
93 %
05:30
4,5 klux12,2 klux
11:55
10 Min 
17.
November
8,2 °C6,8 °C
05:50
10,2 °C
13:00
1006,0 hPa1003,6 hPa
01:55
1007,9 hPa
22:56
3,3 km/h
O-SO
15,6 km/h
00:40  
0,9 l/m²
1:56 Stunden
89 %85 %
15:05
91 %
06:30
9,6 klux40,3 klux
12:40
30 Min 
18.
November
7,3 °C6,8 °C
05:41
8,2 °C
13:06
1008,9 hPa1006,9 hPa
01:30
1012,1 hPa
23:21
1,0 km/h
N-NW
12,5 km/h
14:41  
6,4 l/m²
8:40 Stunden
91 %89 %
00:01
92 %
06:46
1,8 klux5,5 klux
10:36
--- 
19.
November
6,6 °C4,8 °C
22:47
7,9 °C
16:01
1019,7 hPa1012,1 hPa
00:01
1026,9 hPa
23:52
0,9 km/h
W
10,0 km/h
14:06  
0,6 l/m²
1:14 Stunden
92 %89 %
13:51
93 %
01:06
4,82 klux10,10 klux
11:16
--- 
20.
November
5,3 °C3,4 °C
08:27
6,7 °C
13:22
1026,9 hPa1025,8 hPa
00:12
1028,1 hPa
08:27
2,0 km/h
O-SO
15,5 km/h
22:23  
---
90 %85 %
22:38
94 %
10:47
3,5 klux7,9 klux
12:57
--- 
21.
November
3,6 °C0,4 °C
09:23
8,8 °C
15:28
1023,8 hPa1021,2 hPa
15:48
1026,7 hPa
00:03
2,6 km/h
SO
27,6 km/h
12:38  
---
85 %74 %
15:48
93 %
11:28
16,91 klux37,10 klux
12:48
5:35 Std 
22.
November
2,6 °C-0,8 °C
07:29
7,8 °C
15:09
1022,1 hPa1021,3 hPa
02:24
1023,4 hPa
08:49
0,6 km/h
SO
14,1 km/h
23:30  
---
89 %86 %
15:19
92 %
11:09
9,6 klux32,2 klux
12:44
1:05 Std 
23.
November
5,9 °C2,0 °C
06:45
10,6 °C
14:55
1021,3 hPa1018,5 hPa
21:50
1023,9 hPa
09:35
2,2 km/h
O-SO
19,8 km/h
11:50  
---
88 %80 %
15:50
94 %
10:55
15,9 klux33,1 klux
12:10
5:15 Std 
24.
November
5,9 °C-0,7 °C
23:56
11,2 °C
14:16
1023,9 hPa1018,4 hPa
03:11
1028,6 hPa
23:56
1,6 km/h
SO
14,6 km/h
14:51  
---
87 %75 %
15:36
92 %
08:46
11,6 klux42,1 klux
12:06
2:55 Std 
25.
November
0,6 °C-2,8 °C
08:01
7,5 °C
14:26
1025,9 hPa1022,0 hPa
23:57
1028,8 hPa
03:16
1,6 km/h
SO
19,8 km/h
14:41  
---
88 %78 %
15:31
93 %
12:31
17,5 klux33,4 klux
12:16
5:46 Std 
26.
November
3,0 °C1,7 °C
08:47
4,5 °C
14:47
1018,1 hPa1014,6 hPa
23:08
1022,0 hPa
00:02
5,7 km/h
O-SO
22,1 km/h
17:17  
0,5 l/m²
35 Minuten
84 %80 %
14:47
90 %
00:02
3,9 klux8,4 klux
12:42
--- 
27.
November
3,9 °C3,0 °C
08:18
5,1 °C
12:43
1011,5 hPa1010,2 hPa
12:43
1014,6 hPa
00:03
10,1 km/h
O-SO
25,8 km/h
11:03  
1,1 l/m²
2:15 Stunden
83 %80 %
11:58
87 %
20:08
7,12 klux26,50 klux
12:28
5 Min 
28.
November
3,4 °C2,7 °C
01:39
3,8 °C
18:24
1012,5 hPa1010,5 hPa
00:04
1015,7 hPa
23:25
9,2 km/h
O-SO
26,4 km/h
12:39  
---
88 %86 %
00:04
89 %
08:24
2,6 klux5,9 klux
10:54
--- 
29.
November
2,5 °C2,1 °C
08:15
2,9 °C
00:00
1016,2 hPa1014,7 hPa
00:00
1017,9 hPa
10:30
10,0 km/h
O-SO
23,9 km/h
02:20  
---
87 %86 %
10:45
88 %
04:45
2,05 klux3,93 klux
12:35
--- 
30.
November
2,0 °C1,6 °C
21:21
2,5 °C
00:26
1013,8 hPa1010,7 hPa
23:47
1015,8 hPa
02:26
9,6 km/h
O-SO
22,5 km/h
20:56  
---
89 %87 %
00:01
90 %
19:41
1,73 klux3,41 klux
12:31
--- 



November
2014

Temperatur

  

Luftdruck

  

Wind

  

Regen

  

Luftfeuchte

  

Helligkeit

Sonnen-
schein

Ø

Min

Max

Ø

Min

Max

Ø

Max

Max

Ø

Min

Max

Ø

Max

Max

6,5 °C

-2,8 °C

08:01 Uhr
25.11.2014

16,3 °C

14:19 Uhr
01.11.2014

1013,0 hPa

994,7 hPa

14:47 Uhr
04.11.2014

1028,8 hPa

03:16 Uhr
25.11.2014

5,3 km/h

O-SO

37,4 km/h

20:16 Uhr
03.11.2014

19,5 l/m²

15:00 Stunden
16.11.2014

88 %

72 %

14:54 Uhr
08.11.2014

94 %

12:09 Uhr
01.11.2014

8,91 klux

56,50 klux

12:03 Uhr
07.11.2014

5:46 Std

am
25.11.2014

Gesamt

Gesamt

48,9 l/m²

17 Tage
60:10 h

40:46 Std


Wetter-Diagramme November 2014     Heinzenberg / Taunus   
TemperaturLuftfeuchte
SolarstrahlungLuftdruck
HelligkeitSonnenschein
RegenmengeRegendauer
Wind-GeschwindigkeitWind-Richtung